Lapse_Rate
-6.5 -5.9 -5.4 -4.7 -4.2 -3.0 -2.0 -1.5 -1.4 -0.7 0.0 0.5 1.7 3.4 4.3 3.9 3.9 3.7 4.4 5.8 6.3 7.0 6.7 6.5 5.8 6.2 5.9 6.1 6.4 5.9 5.9 6.0 5.7 5.5 5.4 5.6 5.8 5.8 5.9 5.7 6.2 6.1 6.1
-6.6 -6.7 -6.5 -5.8 -5.3 -4.4 -3.2 -1.5 -1.3 -1.1 -0.5 -0.7 1.0 1.4 3.5 4.9 4.2 4.0 4.0 4.9 5.9 6.3 6.7 6.9 6.7 6.1 6.3 6.2 6.1 6.2 6.0 5.9 5.9 5.5 5.7 5.6 5.5 5.8 5.8 5.8 6.3 6.0 6.1
-5.9 -6.4 -6.6 -6.7 -6.0 -5.3 -4.2 -2.6 -1.3 -0.7 -0.3 0.3 -0.3 0.7 1.7 3.6 4.9 4.4 4.1 4.3 5.0 5.6 6.2 6.8 7.1 7.0 6.1 6.4 6.5 6.1 5.9 6.1 6.0 5.6 5.6 5.9 5.6 5.7 5.8 5.9 5.7 5.9 6.1
-4.5 -5.3 -5.5 -5.8 -5.4 -5.3 -4.7 -4.4 -3.3 -1.0 -0.5 0.1 -0.4 -0.0 0.5 1.4 2.2 5.4 4.6 4.3 4.4 4.8 5.6 6.0 6.2 6.7 6.9 6.7 6.5 6.0 6.1 5.9 5.7 5.8 5.7 5.9 5.8 5.7 5.9 5.7 5.9 5.7 6.0
-3.2 -3.7 -4.3 -4.4 -4.5 -4.9 -5.4 -5.0 -4.4 -3.2 -1.6 -0.3 0.4 0.4 0.3 0.5 1.4 3.8 4.6 4.2 4.1 4.4 4.7 5.5 5.8 6.2 6.7 7.1 7.3 6.9 6.1 6.1 5.9 5.7 5.9 5.7 5.9 6.1 6.0 5.9 5.8 5.8 5.9
-2.5 -2.9 -3.1 -3.6 -3.8 -4.6 -5.1 -5.2 -5.0 -4.1 -3.1 -2.1 0.0 1.0 0.6 0.4 1.2 2.7 4.6 4.7 4.7 4.1 4.4 4.7 5.1 5.1 6.2 6.7 7.3 7.5 7.0 6.3 6.3 6.2 5.8 5.8 6.1 6.4 6.5 6.1 5.7 5.7 5.8
-2.0 -2.4 -2.8 -3.0 -3.3 -3.7 -4.4 -4.1 -4.5 -4.6 -3.5 -2.8 -1.5 0.9 1.6 1.7 1.9 3.0 4.3 4.8 4.5 4.1 3.8 3.9 4.4 4.6 4.8 6.2 6.8 7.1 7.2 6.7 5.9 6.5 6.3 6.0 6.1 6.8 7.2 6.6 6.1 5.8 6.0
-1.7 -0.9 -2.1 -2.3 -2.6 -3.1 -3.3 -3.6 -3.9 -3.9 -3.6 -2.9 -1.6 0.4 2.2 3.6 4.1 4.3 4.2 4.2 4.3 4.5 3.9 4.1 3.9 3.8 4.2 4.4 5.8 6.6 6.8 6.6 6.3 6.3 6.8 6.2 6.0 6.9 7.7 7.3 6.4 5.8 6.0
-1.8 -1.9 -1.8 -1.8 -2.0 -2.2 -2.8 -3.0 -2.8 -2.6 -2.7 -2.3 -1.8 -0.5 1.4 4.4 -0.2 3.9 5.0 4.2 4.3 4.0 3.9 4.2 4.1 4.1 4.0 4.0 4.4 5.6 5.9 6.4 6.8 6.7 6.8 6.5 5.4 6.6 7.4 7.4 6.3 6.1 5.7
-1.3 -1.2 -1.3 -1.4 -1.6 -1.7 -2.1 -2.2 -0.6 -1.5 -1.5 -1.9 -1.3 1.3 0.7 2.1 3.1 1.3 1.8 3.4 5.3 5.1 4.9 4.1 4.0 4.5 4.3 4.1 3.8 4.3 5.6 5.4 6.4 7.2 6.9 7.0 6.3 5.4 6.6 7.2 6.6 6.4 5.9
-0.9 -0.4 -0.6 -0.8 -1.0 -1.0 -1.3 -1.4 -1.4 -1.3 -0.8 -1.0 -0.5 -0.5 0.5 1.5 2.3 4.4 4.2 2.7 1.9 3.7 5.0 5.0 4.6 4.7 4.6 4.5 4.0 3.7 4.6 5.5 5.7 6.9 7.4 7.3 7.4 6.8 6.0 6.7 7.6 6.7 6.5
-1.0 -0.6 -0.5 -0.8 -0.8 -0.8 -1.0 -1.0 -0.8 -1.0 -0.8 -0.3 -0.3 -0.2 0.3 1.1 2.9 3.2 4.1 3.1 3.4 2.3 4.1 6.2 5.9 5.1 5.2 4.9 4.6 4.1 3.5 4.1 5.2 6.4 7.6 7.7 7.8 7.7 7.6 8.4 7.6 6.7 6.7
-0.8 -0.6 -0.9 -1.0 -1.1 -0.9 -0.8 -0.6 -0.7 -0.6 -0.4 -0.4 -0.3 -0.1 0.6 0.6 1.8 2.8 3.9 4.5 4.7 3.1 2.7 3.1 6.2 6.6 5.8 5.3 4.9 4.3 3.4 3.4 4.9 6.1 7.3 7.9 7.7 7.6 7.9 7.6 7.2 6.7 6.7
-1.0 -0.9 -0.9 -1.0 -0.6 -0.5 -0.6 -0.6 -0.9 -0.9 -0.6 -0.5 -0.5 -0.3 0.2 0.6 1.6 2.6 3.6 5.5 5.4 5.3 4.1 4.2 4.2 6.1 7.2 6.4 5.6 4.8 4.0 2.9 4.3 6.0 6.8 7.8 7.5 7.0 6.9 7.1 7.0 7.0 6.4
0.4 0.7 -0.1 -0.3 0.0 -0.2 0.0 -0.2 -0.6 -1.1 -0.3 -0.5 -0.4 -0.4 -0.3 0.0 1.0 1.9 3.3 5.1 7.1 6.7 6.3 4.7 5.7 6.4 7.3 6.9 6.1 4.8 4.7 2.6 3.5 5.0 6.1 6.9 7.4 6.9 6.7 6.3 6.6 6.7 6.6
0.4 0.3 0.4 0.4 0.3 0.2 0.2 0.5 0.1 0.1 -0.1 -0.3 0.3 0.1 -0.1 0.4 0.8 1.3 3.5 4.4 5.9 6.9 6.9 6.9 5.9 4.9 3.2 3.6 6.2 5.1 5.0 4.9 2.7 4.1 5.5 5.7 6.3 6.7 6.6 6.0 6.0 5.9 6.1
0.9 0.8 0.9 1.0 1.1 1.1 0.8 1.6 1.4 1.1 0.8 0.7 0.8 1.3 1.3 1.7 1.5 2.0 3.2 6.0 7.7 7.5 6.9 5.5 5.9 5.3 4.9 3.3 2.9 5.2 6.3 5.1 4.1 3.3 4.8 5.2 5.5 6.4 6.2 5.9 5.6 5.7 6.6
1.0 1.1 1.2 1.5 2.2 2.3 2.1 2.2 2.1 2.6 2.8 2.7 2.4 2.3 2.6 3.6 2.2 2.6 3.6 4.3 6.3 8.5 8.4 7.4 7.9 6.9 5.1 4.4 5.0 3.7 6.3 6.1 5.9 3.4 3.8 5.0 5.3 5.3 5.9 5.1 5.3 5.3 5.9
0.9 1.1 1.8 1.6 2.3 2.5 2.8 3.3 3.7 4.0 4.2 4.2 4.5 4.3 4.4 4.7 4.3 4.1 4.0 5.3 6.0 8.1 8.5 8.7 8.4 8.3 7.3 5.5 3.3 5.3 6.6 6.8 6.4 5.7 3.3 4.2 5.0 5.0 5.0 5.5 4.9 5.1 5.9
-0.0 0.8 1.6 2.0 2.5 3.4 3.6 3.5 4.2 5.5 7.0 7.8 8.2 7.5 6.9 6.9 5.5 5.1 5.9 6.0 6.5 8.3 8.7 8.3 8.1 8.0 7.4 7.6 6.5 5.3 5.8 6.7 6.6 6.2 4.0 4.7 5.5 5.1 4.8 4.9 4.4 4.8 5.5
0.0 0.5 1.4 2.1 2.3 3.3 3.8 4.5 6.6 7.7 7.7 7.8 8.0 8.1 8.2 7.8 8.0 8.5 8.4 7.6 8.6 8.5 8.5 8.8 8.5 8.4 8.1 8.3 7.4 5.2 5.7 7.6 7.0 6.6 5.2 4.1 5.2 5.7 5.5 4.4 5.4 4.6 4.5
-0.8 -0.3 0.8 1.3 1.6 3.2 4.6 6.7 8.6 7.9 7.9 7.8 7.7 8.2 8.4 8.7 8.7 8.4 8.8 9.4 8.8 8.6 8.3 8.5 8.6 7.9 7.9 8.0 8.5 6.8 6.5 7.5 6.4 7.0 6.3 4.8 5.3 6.2 6.3 6.2 6.4 4.3 4.1
-2.4 -1.0 0.0 1.2 1.8 2.1 4.1 5.9 8.9 7.9 7.6 7.9 8.0 7.7 8.2 9.3 9.2 9.1 8.9 8.5 9.1 9.3 9.1 8.7 8.5 8.5 8.5 8.3 8.8 7.4 6.6 7.1 7.0 6.8 6.7 6.4 5.3 5.5 5.9 6.5 6.1 4.6 3.9
-1.9 -0.1 0.8 1.0 1.3 1.6 4.6 6.4 8.8 8.0 7.7 8.0 7.7 8.1 8.7 8.6 8.7 8.5 7.7 8.4 8.7 9.0 8.9 9.1 8.8 9.4 9.2 9.1 9.1 7.5 6.2 6.1 7.1 7.3 6.1 6.7 6.4 4.5 5.8 5.8 5.4 4.2 4.2
-1.3 -0.6 0.5 0.9 1.3 1.0 4.8 6.5 8.6 7.6 7.8 7.9 8.2 8.5 8.8 8.6 8.8 9.0 7.9 7.4 7.5 8.3 9.4 9.2 9.4 9.5 7.9 8.7 9.0 8.6 8.4 6.0 7.0 6.8 5.7 6.6 6.9 5.8 6.1 6.1 5.6 3.6 3.8
-1.3 1.0 1.1 1.1 2.6 3.2 4.0 8.5 8.9 7.2 7.3 7.5 7.4 8.4 9.0 8.9 8.2 8.1 7.7 7.1 7.1 7.4 8.4 8.8 8.6 8.8 8.9 8.2 9.0 8.6 7.7 7.7 7.4 6.7 6.2 6.3 6.6 6.2 6.0 6.7 6.2 4.8 3.6
Wind_Speed
8 10 10 11 12 13 11 10 10 9 10 10 9 10 6 10 11 9 11 14 13 12 11 13 17 16 17 16 13 10 9 9 8 6 8 8 8 7 7 8 10 13 15
11 10 9 9 11 12 11 10 8 7 6 8 7 10 9 8 10 9 14 16 18 14 12 12 15 19 19 19 16 13 10 10 8 8 6 9 8 7 6 6 8 11 14
13 11 8 8 9 11 11 9 9 8 4 6 5 7 9 10 9 11 13 15 17 18 15 13 15 17 21 21 17 15 14 12 11 8 8 8 10 7 7 4 5 9 13
15 11 6 6 12 12 9 6 5 5 5 5 4 4 5 7 10 10 11 12 15 14 17 17 17 18 18 19 20 18 15 16 14 11 10 8 9 10 6 5 4 8 11
15 13 8 9 11 7 7 5 3 4 4 5 6 4 4 5 5 8 8 11 15 15 15 18 20 17 18 17 18 19 19 16 17 15 11 11 10 12 11 6 4 7 11
13 12 10 11 11 5 4 4 3 3 2 4 7 8 6 6 6 5 7 11 14 16 17 16 17 17 20 19 17 19 20 20 17 17 15 11 11 13 14 11 7 7 11
12 11 9 9 9 5 5 6 3 4 3 6 3 3 3 7 7 7 6 6 8 14 15 15 15 17 17 22 19 17 20 23 20 19 17 16 14 14 14 14 11 8 10
10 9 8 5 7 4 5 5 5 3 3 5 3 3 4 3 3 6 7 8 11 12 12 15 16 17 17 16 18 21 18 23 23 21 20 20 19 15 15 13 12 10 11
11 9 8 6 5 4 3 4 4 5 3 3 6 2 3 2 3 3 6 7 9 8 9 15 16 19 19 18 21 21 23 23 24 23 21 20 22 21 16 14 15 14 12
9 9 9 8 7 6 4 3 3 3 3 3 4 3 2 2 3 5 3 4 7 9 10 8 13 18 20 19 20 20 23 25 25 25 23 22 24 24 21 21 20 18 15
7 8 8 7 5 5 4 4 4 3 2 2 2 2 2 2 4 3 4 5 5 5 6 8 9 15 20 21 19 22 27 28 27 28 26 25 25 26 24 24 23 21 19
4 7 9 8 7 5 4 3 4 4 3 4 4 4 4 3 2 3 4 6 8 7 6 8 9 9 18 20 24 27 31 29 29 30 29 28 27 27 27 27 26 26 22
4 5 8 7 7 8 8 8 4 5 4 4 6 5 5 6 6 7 7 7 5 3 4 7 8 12 17 20 21 27 31 30 30 32 31 31 27 27 26 24 26 27 27
5 9 9 9 10 11 10 9 5 5 6 6 8 8 7 7 7 7 7 6 7 7 8 11 9 9 15 19 21 30 25 32 33 33 32 32 29 28 26 26 26 26 28
6 8 9 10 11 11 11 9 6 8 7 7 8 8 8 7 8 8 9 9 8 6 8 9 7 9 13 18 20 22 26 28 34 34 32 33 31 31 30 27 25 29 29
8 8 7 9 9 11 11 8 8 8 9 8 8 10 9 8 9 9 10 10 11 11 12 6 9 3 5 10 17 24 25 28 33 34 36 34 30 34 34 30 29 26 29
7 8 8 9 10 10 8 9 11 12 12 12 12 12 13 12 9 9 9 11 12 12 16 14 12 13 17 11 14 18 24 24 25 34 38 38 36 32 34 33 32 33 33
9 8 8 10 11 11 10 11 12 12 13 14 14 15 15 11 15 14 11 14 14 15 15 22 14 13 15 15 14 15 13 22 23 31 36 37 36 34 33 33 32 33 34
8 9 9 10 10 10 11 13 13 14 15 15 16 17 17 16 17 13 14 13 14 14 16 16 16 11 13 11 12 16 15 17 22 29 35 34 34 32 34 34 34 35 36
8 9 9 10 10 12 13 13 14 14 16 16 17 18 20 19 21 19 17 18 16 15 16 17 16 14 13 14 11 12 14 14 14 17 23 31 34 34 33 32 33 34 36
7 7 9 9 10 11 10 11 13 15 16 17 18 19 20 24 35 30 15 19 19 17 16 17 16 16 15 13 14 14 14 15 16 14 12 12 13 15 24 32 33 37 37
6 6 8 9 10 9 18 22 21 15 17 17 18 19 20 29 31 39 41 42 29 20 23 17 17 18 20 16 14 13 15 16 10 14 15 14 14 15 14 24 31 33 35
4 7 8 8 10 11 20 23 25 15 15 17 19 20 21 19 29 26 35 42 42 43 39 23 24 22 21 20 18 17 18 18 15 10 15 14 13 15 14 23 33 32 33
5 6 7 8 9 9 20 24 26 17 16 19 21 21 23 25 25 26 26 29 30 31 32 25 27 21 23 17 17 16 18 17 16 13 17 15 13 15 14 17 27 31 32
4 4 6 8 9 11 22 24 23 15 16 20 19 21 22 24 32 39 29 30 29 27 32 42 42 37 34 26 21 12 13 16 15 12 14 12 12 12 12 12 14 31 34
5 5 8 7 12 12 21 25 23 11 16 15 19 19 30 29 35 37 26 27 28 26 24 24 26 30 36 29 32 20 15 17 17 11 11 14 12 9 7 12 11 11 20
Wind_Direction
28 26 23 23 24 8 7 359 358 355 349 344 344 342 257 226 222 207 214 220 234 203 217 191 171 166 162 155 148 146 144 133 132 131 126 112 98 89 98 99 111 114 114
28 27 26 23 16 5 3 353 350 354 340 335 336 344 328 246 227 221 214 210 224 229 212 208 193 173 169 163 161 158 156 152 148 142 139 129 117 110 99 113 121 133 129
31 31 28 21 7 4 1 0 360 348 340 336 333 333 328 340 232 213 212 214 218 223 217 216 216 197 175 169 169 171 164 165 160 158 155 150 134 122 122 119 132 137 135
25 27 23 17 12 14 11 1 9 342 343 334 329 317 306 315 328 240 201 208 215 219 220 218 222 215 194 181 172 175 179 171 171 171 165 167 161 147 140 140 159 152 150
23 17 23 12 10 13 16 2 1 358 333 336 321 309 290 283 272 296 225 201 208 214 219 221 223 222 203 203 187 186 183 189 177 174 180 186 194 169 153 161 177 172 162
17 17 14 7 6 7 11 8 352 321 292 331 309 295 279 258 252 242 228 215 208 207 214 222 217 208 204 207 207 201 197 190 194 179 180 192 196 183 168 166 182 200 175
7 6 10 4 4 3 360 1 329 359 339 349 310 316 266 239 233 227 211 206 210 212 209 211 211 205 209 209 210 204 212 194 199 189 185 189 196 200 182 170 178 201 198
1 3 0 351 353 354 357 3 12 351 343 9 350 283 323 311 236 228 212 209 210 208 209 213 206 209 207 203 212 204 210 209 198 204 191 194 197 208 191 184 182 197 210
349 350 348 346 345 351 353 358 350 9 357 335 20 325 335 289 317 332 230 219 217 210 209 206 216 211 210 210 209 218 207 213 209 206 204 198 196 203 200 198 199 203 204
338 338 340 345 342 342 347 342 3 355 345 321 323 17 285 312 339 327 329 336 248 216 217 217 212 214 213 211 210 214 218 210 216 212 210 199 199 196 208 214 207 207 202
335 334 335 333 332 325 322 315 314 315 294 281 253 341 336 295 245 261 299 324 357 336 300 234 218 215 213 213 213 213 214 212 212 215 212 206 205 206 207 211 212 208 206
332 328 334 326 317 308 304 298 288 270 261 267 258 252 243 273 323 250 262 288 280 288 312 261 231 222 215 213 217 214 214 210 207 209 215 211 207 211 210 206 211 210 209
333 325 328 318 312 303 300 295 284 274 258 244 250 249 246 243 254 268 275 277 278 304 297 316 266 234 225 216 214 213 212 207 206 209 213 215 211 210 209 210 207 208 208
298 302 297 293 289 291 287 286 282 275 263 248 251 250 253 248 250 248 249 263 281 257 276 256 284 284 234 221 217 212 209 206 205 210 208 220 208 205 212 215 208 207 200
296 299 309 296 291 284 288 283 273 276 269 261 254 253 250 251 249 246 247 245 244 265 269 259 251 265 236 224 219 212 212 208 205 207 209 215 217 208 210 216 214 216 203
290 288 287 286 287 285 281 278 274 270 265 263 261 256 254 252 252 248 247 242 243 249 262 251 264 297 338 313 242 212 216 206 203 206 209 211 219 207 212 215 211 197 187
288 285 284 286 286 283 278 277 276 273 269 268 265 261 259 257 251 247 245 247 239 235 248 259 260 272 275 281 287 250 221 214 206 204 208 206 209 211 210 209 207 200 199
288 286 277 275 277 278 273 269 266 267 266 264 263 259 259 256 250 248 246 245 243 247 241 257 253 256 258 258 262 291 235 218 217 207 210 206 206 203 210 209 206 200 199
283 281 276 269 272 277 274 268 268 268 264 260 258 258 259 253 254 248 243 244 245 244 249 254 254 248 256 262 261 262 265 222 217 216 207 210 202 203 204 209 207 202 198
276 276 275 274 271 277 273 270 268 268 266 261 258 252 251 248 250 248 243 242 241 245 244 244 250 250 249 250 251 252 269 225 218 215 206 208 209 204 202 205 205 202 200
275 274 280 274 269 270 271 273 270 269 268 269 264 259 255 247 245 243 244 243 237 239 240 243 243 239 235 231 230 235 241 243 221 208 202 204 205 210 212 205 212 203 202
277 275 279 274 276 278 282 285 286 281 277 273 272 268 264 260 256 250 245 243 235 234 238 237 236 237 237 235 237 237 232 245 211 205 203 209 202 208 209 212 217 206 203
281 285 281 275 279 284 294 290 289 288 284 279 275 272 266 258 257 252 247 240 236 233 234 238 236 231 236 236 231 232 233 254 214 197 198 207 197 213 209 211 211 204 201
277 282 283 278 285 295 307 301 298 295 287 284 276 275 272 271 262 257 248 239 235 231 227 229 237 241 234 228 231 234 238 255 230 206 191 211 194 210 206 211 206 200 201
282 268 278 288 299 300 306 309 307 299 292 288 288 282 277 273 269 263 254 243 236 230 226 224 231 236 248 238 233 243 240 233 243 198 190 197 199 199 209 206 207 200 205
264 289 298 299 301 305 305 317 316 311 303 304 301 293 289 282 278 278 259 246 228 222 217 222 223 230 237 246 236 228 241 232 255 194 189 196 191 180 201 208 204 203 212